Regional Weather Roundup
Issued by NWS Burlington, VT

Home | Current Version | Previous Version | Text Only | Print | Product List | Glossary On
Versions: 1 2 3 4 5 6 7 8 9 10 11 12 13 14 15 16 17 18 19 20 21 22 23 24 25 26 27 28 29 30 31 32 33 34 35 36 37 38 39 40 41 42 43 44 45 46 47 48 49 50
000
ASUS41 KBTV 222130
RWRBTV
VERMONT REGIONAL WEATHER ROUNDUP
NATIONAL WEATHER SERVICE BURLINGTON VT
500 PM EDT TUE AUG 22 2017

NOTE: "FAIR" INDICATES FEW OR NO CLOUDS BELOW 12,000 FEET WITH NO
SIGNIFICANT WEATHER AND/OR OBSTRUCTIONS TO VISIBILITY.

* THESE REPORTS ARE NOT UNDER NWS QUALITY CONTROL AND/OR DO NOT
  REPORT WEATHER SUCH AS PRECIPITATION AND FOG.

VTZ001>019-222200-
_____VERMONT_____


CITY           SKY/WX    TMP DP  RH WIND       PRES   REMARKS
BURLINGTON     CLOUDY    82  72  71 S7        29.65S
MONTPELIER     PTSUNNY   81  67  62 S7        29.76S
MORRISVILLE    CLOUDY    77  69  76 CALM      29.70S
ST. JOHNSBURY*   N/A     83  70  64 MISG      29.68F
LYNDONVILLE*   FAIR      78  68  70 SE7       29.74S
MIDDLEBURY*    FAIR      80  69  68 SE6       29.68F
RUTLAND*       CLOUDY    84  68  58 S9        29.73F
SPRINGFIELD    PTSUNNY   86  67  52 S9G20     29.74F
HIGHGATE*      RAIN      72  71  96 CALM      29.64R
NEWPORT*       RAIN      76  69  77 S7        29.69S
BENNINGTON     MOSUNNY   84  67  56 S12G21    29.76F
ISLAND POND*     N/A     79 N/A N/A SW7         N/A
GALLUP MILLS*    N/A     77 N/A N/A MISG        N/A
UNION VILLAGE*   N/A     84 N/A N/A MISG        N/A
MT. MANSFIELD*   N/A     66 N/A N/A SW25G44     N/A

_____LAKE CHAMPLAIN_____


CITY           SKY/WX    TMP DP  RH WIND       PRES   REMARKS
BURTON ISLAND*   N/A     77  72  83 W8          N/A
COLCHESTER RF*   N/A     77  72  83 S20         N/A
DIAMOND ISL*     N/A     81  70  69 SW7         N/A

$$

NYZ007-026>031-035-052-083-087-222200-
_____NORTHERN NEW YORK_____


CITY           SKY/WX    TMP DP  RH WIND       PRES   REMARKS
PLATTSBURGH    RAIN      72  67  84 SW7G16    29.65R
SARANAC LAKE   RAIN      66  66 100 W9G18     29.72F FOG
MASSENA        CLOUDY    77  72  84 S17G30    29.58F
OGDENSBURG*    FAIR      77  70  79 S17G26    29.56F
POTSDAM*       MOSUNNY   73  73 100 SW17G25   29.59F
STARK FALLS*     N/A     70 N/A N/A S14         N/A
WATERTOWN      CLOUDY    75  70  84 SW17G25   29.63S
FT DRUM        DRIZZLE   75  68  78 SW14G21   29.64S
ALBANY         PTSUNNY   88  68  51 S17G28    29.72F HX  91
GLENS FALLS    CLOUDY    84  70  62 S10G18    29.69F

$$
NHZ002-005-011-222200-
_____NEW HAMPSHIRE_____


CITY           SKY/WX    TMP DP  RH WIND       PRES   REMARKS
LEBANON        MOSUNNY   87  72  60 S13G24    29.72F HX  93
KEENE            N/A    N/A N/A N/A MISG        N/A
MT WASHINGTON  FOG       57  57 100 SW22G48     N/A  VSB 0
PLYMOUTH       PTSUNNY   84  67  57 CALM      29.73F
WHITEFIELD     MOSUNNY   84  66  54 S9        29.72F

$$

_____REGIONAL QUEBEC LOCATIONS_____


CITY           SKY/WX    TMP DP  RH WIND       PRES   REMARKS
MONTREAL       CLOUDY    73  70  88 S12G20    29.55F
QUEBEC CITY    SHOWER    70  68  94 N7        29.58F FOG
SHERBROOKE     LGT RAIN  79  68  69 S8        29.66S

_____REGIONAL ONTARIO LOCATIONS_____


CITY           SKY/WX    TMP DP  RH WIND       PRES   REMARKS
OTTAWA         TSTM      68  66  94 SW14G23   29.53R

______KEY______
VSB  - VISIBILITY IN MILES
WCI  - WIND CHILL INDEX
HX   - HEAT INDEX
$$
NNNN



USA.gov is the U.S. government's official web portal to all federal, state and local government web resources and services.